Torna al catalogo

STARLINK-6265

AttivoComunicazioniVLEO
NORAD 56557·PAYLOAD·🇺🇸 United States

Lanciato May 14, 2023 da Cape Canaveral Space Force Station

Loading…

Prossimi Passaggi (prossime 24 ore)

TLE

AggiornatoSource: CelesTrak SupGP

Epoca: Sep 14, 2026, 22:01 UTC

1 56557C 23065BG  26257.91784722  .00029505  00000+0  10689-2 0  2579
2 56557  43.0028 234.9458 0001617 276.3458  20.3411 15.27558074    18

Traccia STARLINK-6265 in tempo reale con AllMySat

Download on the App Store